Location: Strawberry
(45.6646°N, 111.9596°W)
Time: 21:48:31
(UTC+00:00)

Courier 1B Rocket - Pass Details

Date: 06 October 2022
Orbit: 920 x 1202 km, 28.3° (Epoch: 03 December)

Event Time Altitude Azimuth Distance (km) Brightness Sun altitude
Rises 00:24:38 0° 208° (SSW) 3,881 8.8 5.3°
Reaches altitude 10° 00:30:50 10° 168° (SSE) 2,832 7.5 4.2°
Maximum altitude 00:31:36 10° 162° (SSE) 2,806 7.4 4.1°
Drops below altitude 10° 00:32:22 10° 155° (SSE) 2,809 7.3 4.0°
Sets 00:38:16 0° 115° (ESE) 3,675 7.5 3.0°
